• In Deutschland
  • Länderverzeichnis
  • Für 7 Tage
  • Wassertemperatur
  • Satellitenkarten
  • Wetterkarte
  • Widgets
  • user-avatar
    Anmelden

    Stündliche Wetter Bad Bramstedt

    Heute, 16 Dezember, Samstag

    Zeit Temperatur Niederschläge Wind Luftdruck Luftfeuchtigkeit
    00:00 -2°C° 0,1 mm 2 m/S 696 mmHg 96%
    01:00 -2°C° 0 mm 2 m/S 696 mmHg 95%
    02:00 -2°C° 0 mm 2 m/S 696 mmHg 96%
    03:00 0°C° 0 mm 1 m/S 696 mmHg 96%
    04:00 0°C° 0 mm 1 m/S 697 mmHg 96%
    05:00 0°C° 0 mm 1 m/S 697 mmHg 96%
    06:00 -1°C° 0 mm 1 m/S 697 mmHg 96%
    07:00 0°C° 0 mm 1 m/S 698 mmHg 96%
    08:00 0°C° 0,1 mm 1 m/S 698 mmHg 93%
    09:00 -2°C° 0,1 mm 2 m/S 699 mmHg 91%
    10:00 -1°C° 0,1 mm 2 m/S 699 mmHg 88%
    11:00 -1°C° 0,1 mm 2 m/S 700 mmHg 86%
    12:00 -1°C° 0,1 mm 3 m/S 700 mmHg 84%
    13:00 0°C° 0,1 mm 3 m/S 701 mmHg 82%
    14:00 -1°C° 0,1 mm 3 m/S 701 mmHg 84%
    15:00 -1°C° 0,1 mm 3 m/S 701 mmHg 86%
    16:00 -1°C° 0,1 mm 3 m/S 702 mmHg 88%
    17:00 -2°C° 0 mm 3 m/S 702 mmHg 89%
    18:00 -2°C° 0 mm 3 m/S 703 mmHg 91%
    19:00 -4°C° 0 mm 3 m/S 703 mmHg 93%
    20:00 -4°C° 0,1 mm 3 m/S 704 mmHg 93%
    21:00 -4°C° 0,1 mm 3 m/S 704 mmHg 93%
    22:00 -4°C° 0,1 mm 4 m/S 705 mmHg 93%
    23:00 -4°C° 0,1 mm 4 m/S 705 mmHg 93%

    Morgen, 17 Dezember, Sonntag

    Zeit Temperatur Niederschläge Wind Luftdruck Luftfeuchtigkeit
    00:00 -4°C° 0,1 mm 4 m/S 705 mmHg 92%
    01:00 -4°C° 0,1 mm 4 m/S 706 mmHg 92%
    02:00 -4°C° 0,3 mm 4 m/S 706 mmHg 92%
    03:00 -3°C° 0,3 mm 4 m/S 706 mmHg 92%
    04:00 -3°C° 0,3 mm 4 m/S 706 mmHg 92%
    05:00 -3°C° 0,3 mm 4 m/S 706 mmHg 92%
    06:00 -3°C° 0,3 mm 4 m/S 706 mmHg 91%
    07:00 -3°C° 0,3 mm 4 m/S 707 mmHg 91%
    08:00 -3°C° 0,2 mm 4 m/S 707 mmHg 90%
    09:00 -3°C° 0,2 mm 4 m/S 708 mmHg 90%
    10:00 -3°C° 0,2 mm 4 m/S 708 mmHg 89%
    11:00 -3°C° 0,2 mm 4 m/S 709 mmHg 88%
    12:00 -2°C° 0,2 mm 4 m/S 709 mmHg 87%
    13:00 -2°C° 0,2 mm 4 m/S 709 mmHg 85%
    14:00 -3°C° 0,2 mm 4 m/S 710 mmHg 86%
    15:00 -3°C° 0,2 mm 4 m/S 710 mmHg 87%
    16:00 -3°C° 0,2 mm 4 m/S 710 mmHg 88%
    17:00 -2°C° 0,1 mm 3 m/S 711 mmHg 90%
    18:00 -4°C° 0,1 mm 3 m/S 711 mmHg 91%
    19:00 -4°C° 0,1 mm 3 m/S 712 mmHg 93%
    20:00 -4°C° 0,1 mm 3 m/S 712 mmHg 94%
    21:00 -4°C° 0,1 mm 3 m/S 712 mmHg 94%
    22:00 -4°C° 0,1 mm 3 m/S 712 mmHg 94%
    23:00 -4°C° 0 mm 3 m/S 712 mmHg 94%

    übermorgen, 18 Dezember, Montag

    Zeit Temperatur Niederschläge Wind Luftdruck Luftfeuchtigkeit
    00:00 -4°C° 0 mm 3 m/S 712 mmHg 93%
    01:00 -4°C° 0 mm 3 m/S 712 mmHg 93%
    02:00 -4°C° 0 mm 3 m/S 712 mmHg 92%
    03:00 -4°C° 0 mm 4 m/S 712 mmHg 92%
    04:00 -4°C° 0 mm 4 m/S 711 mmHg 91%
    05:00 -4°C° 0,2 mm 4 m/S 711 mmHg 91%
    06:00 -4°C° 0,2 mm 4 m/S 710 mmHg 91%
    07:00 -4°C° 0,2 mm 4 m/S 710 mmHg 91%
    08:00 -4°C° 0,7 mm 4 m/S 710 mmHg 92%
    09:00 -4°C° 0,7 mm 4 m/S 710 mmHg 92%
    10:00 -4°C° 0,7 mm 4 m/S 709 mmHg 93%
    11:00 -4°C° 0,4 mm 4 m/S 709 mmHg 92%
    12:00 -2°C° 0,4 mm 3 m/S 709 mmHg 92%
    13:00 -2°C° 0,4 mm 3 m/S 709 mmHg 92%
    14:00 -2°C° 0,1 mm 2 m/S 710 mmHg 93%
    15:00 -2°C° 0,1 mm 2 m/S 710 mmHg 94%
    16:00 0°C° 0,1 mm 1 m/S 710 mmHg 95%
    17:00 0°C° 0,1 mm 1 m/S 711 mmHg 96%
    18:00 0°C° 0,1 mm 1 m/S 712 mmHg 97%
    19:00 0°C° 0,1 mm 1 m/S 712 mmHg 97%
    20:00 0°C° 0,1 mm 1 m/S 713 mmHg 97%
    21:00 0°C° 0,1 mm 1 m/S 714 mmHg 97%
    22:00 -1°C° 0,1 mm 2 m/S 714 mmHg 97%
    23:00 -1°C° 0,1 mm 2 m/S 715 mmHg 97%

    19 Dezember, Dienstag

    Zeit Temperatur Niederschläge Wind Luftdruck Luftfeuchtigkeit
    00:00 -1°C° 0,1 mm 2 m/S 715 mmHg 97%
    01:00 -1°C° 0,1 mm 2 m/S 715 mmHg 97%
    02:00 -1°C° 0 mm 2 m/S 716 mmHg 97%
    03:00 -1°C° 0 mm 2 m/S 716 mmHg 96%
    04:00 -1°C° 0 mm 2 m/S 716 mmHg 96%
    05:00 -2°C° 0 mm 2 m/S 717 mmHg 96%
    06:00 -2°C° 0 mm 2 m/S 717 mmHg 96%
    07:00 -2°C° 0 mm 2 m/S 717 mmHg 96%
    08:00 -2°C° 0 mm 2 m/S 718 mmHg 95%
    09:00 -2°C° 0 mm 2 m/S 718 mmHg 95%
    10:00 -2°C° 0 mm 2 m/S 719 mmHg 94%
    11:00 -2°C° 0 mm 3 m/S 719 mmHg 94%
    12:00 -1°C° 0 mm 3 m/S 719 mmHg 94%
    13:00 -1°C° 0 mm 3 m/S 719 mmHg 93%
    14:00 -1°C° 0 mm 3 m/S 719 mmHg 93%
    15:00 -1°C° 0 mm 3 m/S 719 mmHg 94%
    16:00 -1°C° 0 mm 3 m/S 719 mmHg 94%
    17:00 -2°C° 0,1 mm 3 m/S 719 mmHg 94%
    18:00 -2°C° 0,1 mm 3 m/S 719 mmHg 95%
    19:00 -2°C° 0,1 mm 3 m/S 719 mmHg 95%
    20:00 -2°C° 0,3 mm 3 m/S 719 mmHg 95%
    21:00 -1°C° 0,3 mm 3 m/S 719 mmHg 95%
    22:00 -1°C° 0,3 mm 3 m/S 719 mmHg 95%
    23:00 -1°C° 0,3 mm 3 m/S 719 mmHg 95%

    20 Dezember, Mittwoch

    Zeit Temperatur Niederschläge Wind Luftdruck Luftfeuchtigkeit
    00:00 -1°C° 0,3 mm 3 m/S 719 mmHg 95%
    01:00 -3°C° 0,3 mm 4 m/S 719 mmHg 95%
    02:00 -3°C° 0 mm 4 m/S 718 mmHg 94%
    03:00 -3°C° 0 mm 4 m/S 718 mmHg 94%
    04:00 -3°C° 0 mm 4 m/S 718 mmHg 94%
    05:00 -2°C° 0,1 mm 4 m/S 718 mmHg 94%
    06:00 -2°C° 0,1 mm 4 m/S 718 mmHg 95%
    07:00 -2°C° 0,1 mm 4 m/S 718 mmHg 96%
    08:00 -2°C° 0,2 mm 4 m/S 718 mmHg 96%
    09:00 0°C° 0,2 mm 3 m/S 718 mmHg 96%
    10:00 0°C° 0,2 mm 3 m/S 718 mmHg 97%
    11:00 0°C° 0,4 mm 3 m/S 718 mmHg 97%
    12:00 0°C° 0,4 mm 3 m/S 718 mmHg 97%
    13:00 +1°C° 0,4 mm 3 m/S 718 mmHg 98%
    14:00 +1°C° 0,2 mm 3 m/S 718 mmHg 98%
    15:00 +1°C° 0,2 mm 3 m/S 718 mmHg 98%
    16:00 +1°C° 0,2 mm 3 m/S 718 mmHg 98%
    17:00 +1°C° 0,1 mm 3 m/S 718 mmHg 98%
    18:00 +2°C° 0,1 mm 3 m/S 719 mmHg 98%
    19:00 +2°C° 0,1 mm 3 m/S 719 mmHg 98%
    20:00 +2°C° 0,4 mm 3 m/S 719 mmHg 98%
    21:00 +1°C° 0,4 mm 4 m/S 719 mmHg 98%
    22:00 +1°C° 0,4 mm 4 m/S 719 mmHg 98%
    23:00 +2°C° 0,4 mm 3 m/S 719 mmHg 98%

    21 Dezember, Donnerstag

    Zeit Temperatur Niederschläge Wind Luftdruck Luftfeuchtigkeit
    00:00 +2°C° 0,4 mm 3 m/S 719 mmHg 98%
    01:00 +2°C° 0,4 mm 3 m/S 719 mmHg 98%
    02:00 +2°C° 0,2 mm 3 m/S 719 mmHg 98%
    03:00 +2°C° 0,2 mm 3 m/S 719 mmHg 98%
    04:00 +3°C° 0,2 mm 4 m/S 719 mmHg 98%
    05:00 +3°C° 0,1 mm 4 m/S 719 mmHg 98%
    06:00 +3°C° 0,1 mm 4 m/S 719 mmHg 97%
    07:00 +3°C° 0,1 mm 4 m/S 719 mmHg 97%
    08:00 +3°C° 0,3 mm 4 m/S 719 mmHg 97%
    09:00 +2°C° 0,3 mm 5 m/S 719 mmHg 97%
    10:00 +2°C° 0,3 mm 5 m/S 719 mmHg 96%
    11:00 +2°C° 0,2 mm 5 m/S 719 mmHg 96%
    12:00 +2°C° 0,2 mm 5 m/S 718 mmHg 96%
    13:00 +2°C° 0,2 mm 5 m/S 718 mmHg 95%
    14:00 +2°C° 0,1 mm 5 m/S 718 mmHg 95%
    15:00 +2°C° 0,1 mm 5 m/S 718 mmHg 95%
    16:00 +2°C° 0,1 mm 5 m/S 718 mmHg 95%
    17:00 +2°C° 0,1 mm 5 m/S 718 mmHg 95%
    18:00 +2°C° 0,1 mm 5 m/S 718 mmHg 95%
    19:00 +3°C° 0,1 mm 5 m/S 717 mmHg 95%
    20:00 +3°C° 0,1 mm 5 m/S 717 mmHg 95%
    21:00 +3°C° 0,1 mm 5 m/S 717 mmHg 95%
    22:00 +3°C° 0,1 mm 6 m/S 716 mmHg 95%
    23:00 +3°C° 0,4 mm 6 m/S 716 mmHg 95%
    Mehr zeigen